Location: Waterford Crossing
(41.2876°N, 81.8537°W)
Time: 07:29:53
(UTC+00:00)

Daily predictions for brighter satellites

Satellite Brightness Start Highest point End
(mag) Time Altitude Azimuth Time Altitude Azimuth Time Altitude Azimuth
FALCON 9 DEB 3.3 22:53:32 10° WSW 22:56:45 63° NW 22:59:58 10° NE
NOAA 11 4.3 22:54:33 10° SSE 22:59:49 53° ENE 23:05:06 10° N
FALCON 9 DEB 3.5 22:57:35 10° WSW 23:00:44 54° NW 23:03:52 10° NE
COSMO-SKYMED 1 3.3 22:57:57 10° NNE 23:01:54 33° E 23:05:49 10° SSE
H-2A R/B 3.4 22:59:23 10° N 23:03:16 40° WNW 23:07:05 10° SW
Cosmos 1825 Rocket 3.6 23:06:37 10° N 23:11:05 87° W 23:15:29 10° S
Cosmos 1980 Rocket 3.9 23:10:04 10° ESE 23:11:51 12° E 23:12:55 11° E
Okean O Rocket 2.2 23:08:46 10° S 23:13:05 62° WSW 23:17:25 10° NNW
FALCON 9 DEB 3.9 23:09:58 10° WSW 23:13:05 45° NNW 23:16:13 10° NE
YAOGAN 1 3.8 23:10:44 10° ESE 23:13:57 21° ENE 23:17:10 10° NNE
Cosmos 1455 3.8 23:11:55 10° ESE 23:14:04 15° E 23:16:14 10° NE
Cosmos 2297 Rocket 2.6 23:09:10 10° N 23:14:32 42° ENE 23:19:52 10° SE
CORIOLIS 4.4 23:10:17 10° S 23:15:36 76° WSW 23:21:00 10° NNW
Cosmos 292 Rocket 3.9 23:10:56 10° SSW 23:15:44 79° WNW 23:20:34 10° NNE
Cosmos 1302 Rocket 4.0 23:10:37 10° S 23:15:48 67° ESE 23:21:04 10° NNE
Lacrosse 5 4.1 23:14:09 10° NW 23:16:43 14° N 23:19:16 10° NNE
In-Cosmos 22 Rocket 4.5 23:12:23 10° N 23:17:28 41° ENE 23:22:37 10° SE
FengYun 1-2 T 4.3 23:13:58 10° SSE 23:19:38 88° ENE 23:25:18 10° NNW
CZ-4B R/B 1.8 23:16:33 10° N 23:19:44 60° WNW 23:22:48 10° SSW
ATLAS 2AS CENTAUR R/B 4.4 23:18:43 10° NNW 23:23:30 17° NNE 23:27:36 11° ENE
Cosmos 1726 Rocket 3.7 23:19:30 10° S 23:23:49 78° W 23:28:13 10° N
FALCON 9 DEB 4.3 23:21:33 10° W 23:24:31 34° NNW 23:27:21 11° NE
SMAP 4.3 23:21:31 10° S 23:25:58 46° W 23:30:27 10° NNW
Aureole 3 2.6 23:23:28 10° S 23:26:41 65° E 23:29:39 10° NNE
Cosmos 1939 Rocket 2.8 23:22:51 10° SSE 23:26:45 57° ENE 23:30:36 10° N
USA 307 4.4 23:23:56 10° NNW 23:27:17 22° NNE 23:29:25 15° ENE
S3M 4.4 23:22:11 10° SSE 23:27:40 36° E 23:33:12 10° NNE
Aureole 3 Rocket 3.0 23:25:58 10° S 23:29:41 69° E 23:34:49 10° NNE
Cosmos 2228 4.1 23:25:49 10° SSW 23:29:54 47° W 23:34:03 10° N
Cosmos 1689 Rocket 1.9 23:27:44 10° NNE 23:30:36 63° E 23:33:27 10° S
USA 308 4.4 23:28:45 10° NNW 23:32:10 22° NNE 23:34:05 17° ENE
Milstar 3 4.1 23:27:31 10° SW 23:33:31 28° S 23:39:02 11° ESE
Helios 1A Rocket 3.1 23:31:18 10° SSE 23:35:16 48° ENE 23:39:14 10° N
CZ-2C R/B 3.7 23:30:05 10° SE 23:35:26 40° ENE 23:40:41 10° N
Meteor 2-8 Rocket 4.4 23:35:24 10° S 23:41:29 83° E 23:47:39 10° N
Timation 2 Rocket 4.3 23:36:02 10° NNW 23:42:41 78° WSW 23:49:31 10° SSE
Cosmos 1400 Rocket 3.2 23:41:09 10° SSW 23:45:15 70° W 23:49:21 10° N
Cosmos 2219 3.2 23:39:34 10° NNW 23:45:21 78° ENE 23:51:06 10° SSE
Meteor 2-10 Rocket 3.6 23:40:42 10° S 23:45:52 52° E 23:50:53 10° NNE
Okean-O 2.6 23:42:41 10° SSE 23:47:01 58° ENE 23:51:23 10° N
SKYMED 2 3.8 23:45:42 10° N 23:50:03 72° WNW 23:54:21 10° SSW
CZ-4 R/B 1.3 23:47:27 10° SSE 23:51:17 57° ENE 23:55:05 10° N
Cosmos 1892 2.6 23:48:50 10° N 23:52:43 66° E 23:56:33 10° SSE
Cosmos 2082 4.1 23:48:25 10° N 23:53:48 40° ENE 23:56:35 25° ESE
Cosmos 1408 2.9 23:50:42 10° N 23:54:11 41° E 23:54:58 36° ESE
Cosmos 1992 Rocket 4.0 23:49:28 10° S 23:54:33 58° ESE 23:59:40 10° NNE
PSLV R/B 4.1 23:50:54 10° N 23:55:05 76° WNW 23:59:11 10° SSW
OAO 2 Rocket 4.2 23:50:40 10° WSW 23:55:15 37° S 23:57:25 25° SE
